Regional Weather Roundup
Issued by NWS Northern Indiana

Home | Current Version | Previous Version | Graphics & Text | Print | Product List | Glossary On
Versions: 1 2 3 4 5 6 7 8 9 10 11 12 13 14 15 16 17 18 19 20 21 22 23 24 25 26 27 28 29 30 31 32 33 34 35 36 37 38 39 40 41 42 43 44 45 46 47 48 49 50
000
ASUS43 KIWX 091810
RWRIWX

KIWX WEATHER ROUNDUP
NATIONAL WEATHER SERVICE NORTHERN INDIANA
100 PM EST TUE FEB 09 2016

NOTE: "FAIR" INDICATES FEW OR NO CLOUDS BELOW 12,000 FEET WITH NO
SIGNIFICANT WEATHER AND/OR OBSTRUCTIONS TO VISIBILITY.

* THESE STATIONS ARE NOT UNDER NWS QUALITY CONTROL. THEY ALSO MAY NOT
  REPORT WEATHER SUCH AS PRECIPITATION OR FOG.

INZ001>027-091900-
NORTHERN INDIANA

CITY           SKY/WX    TMP DP  RH WIND       PRES   REMARKS
GARY*          PTSUNNY  N/A N/A N/A W12       29.83F
VALPARAISO     LGT SNOW  20  14  77 MISG      29.79S
6HR MIN TEMP:  20; 6HR MAX TEMP:  21; 6HR PCP: TRACE;

MICHIGAN CITY* LGT SNOW  23  18  80 NW7G20    29.79S WCI  15
LAPORTE*       LGT SNOW  24  19  83 NW13G22   29.77S WCI  12
6HR MIN TEMP:  24; 6HR MAX TEMP:  27;

KNOX*          CLOUDY    23  18  80 NW18G24   29.77S WCI   9
SOUTH BEND     LGT SNOW  24  18  77 NW16      29.74S WCI  11
6HR MIN TEMP:  24; 6HR MAX TEMP:  27; 6HR PCP: TRACE;

ELKHART*       FLURRIES  27  19  74 NW14G20   29.72S WCI  15
GOSHEN         CLOUDY    27  20  75 NW17      29.70S WCI  14
6HR MIN TEMP:  26; 6HR MAX TEMP:  28; 6HR PCP: TRACE;

MONTICELLO*    FLURRIES  21  13  71 W13       29.80S WCI   8
6HR MIN TEMP:  19; 6HR MAX TEMP:  21;

LOGANSPORT*    FLURRIES  21  12  68 W14       29.78S WCI   8
ROCHESTER*     CLOUDY    28  19  69 W16       29.74S WCI  17
WARSAW*        CLOUDY    28  21  74 NW16      29.71S WCI  17
ANGOLA*        CLOUDY    27  21  80 NW13      29.64F WCI  16
FORT WAYNE     CLOUDY    28  21  75 W15       29.69F WCI  16
6HR MIN TEMP:  25; 6HR MAX TEMP:  28; 6HR PCP: TRACE;

HUNTINGTON*    CLOUDY    24  16  73 W13G23    29.71F WCI  12
6HR MIN TEMP:  22; 6HR MAX TEMP:  24;

PERU/GRISSOM   FLURRIES  22  17  81 W16       29.74S WCI   9
6HR MIN TEMP:  21; 6HR MAX TEMP:  22; 6HR PCP: TRACE;

MARION*        CLOUDY    22  13  67 W17G24    29.75S WCI   8
6HR MIN TEMP:  -1; 6HR MAX TEMP:  59;


$$
INZ028>050-091900-
CENTRAL INDIANA

CITY           SKY/WX    TMP DP  RH WIND       PRES   REMARKS
LAFAYETTE      LGT SNOW  21  15  78 NW12G20   29.82S WCI   9
6HR MIN TEMP:  19; 6HR MAX TEMP:  22; 6HR PCP: TRACE;

KOKOMO*        CLOUDY    21  16  79 W21       29.76S WCI   6
6HR MIN TEMP:  21; 6HR MAX TEMP:  21;

MUNCIE*        LGT SNOW  24  17  74 W14       29.74S WCI  12
6HR MIN TEMP:  22; 6HR MAX TEMP:  24; 6HR PCP: TRACE;

INDIANAPOLIS   LGT SNOW  23  16  74 W16       29.79F WCI  10
6HR MIN TEMP:  20; 6HR MAX TEMP:  23; 6HR PCP: TRACE;


$$
MIZ043>046-050>051-056>058-064>065-071>073-077>080-091900-
SOUTHWEST LOWER MICHIGAN

CITY           SKY/WX    TMP DP  RH WIND       PRES   REMARKS
BATTLE CREEK   CLOUDY    26  17  68 NW15      29.66S WCI  14
6HR MIN TEMP:  25; 6HR MAX TEMP:  27;

BENTON HARBOR  LGT SNOW  25  18  74 NW14G21   29.75S WCI  13
6HR MIN TEMP:  25; 6HR MAX TEMP:  29; 6HR PCP: TRACE;

COLDWATER*     CLOUDY    28  20  74 NW16      29.65S WCI  15
6HR MIN TEMP:  27; 6HR MAX TEMP:  31;

HILLSDALE*     CLOUDY    26  20  80 NW18      29.61F WCI  12
6HR MIN TEMP:  26; 6HR MAX TEMP:  29;

HOLLAND        FLURRIES  27  20  75 NW12G21   29.71F WCI  17
6HR MIN TEMP:  26; 6HR MAX TEMP:  27; 6HR PCP:  0.01;

GRAND RAPIDS   FLURRIES  27  19  72 NW14G24   29.67F WCI  16
6HR MIN TEMP:  26; 6HR MAX TEMP:  27; 6HR PCP: TRACE;

KALAMAZOO      CLOUDY    27  19  72 NW20      29.67F WCI  13
6HR MIN TEMP:  26; 6HR MAX TEMP:  29; 6HR PCP: TRACE;

STURGIS*       CLOUDY    27  19  72 NW13G23   29.66F WCI  16
6HR MIN TEMP:  26; 6HR MAX TEMP:  28;

THREE RIVERS*  CLOUDY    28  21  75 NW14G24   29.68F WCI  17
6HR MIN TEMP:  28; 6HR MAX TEMP:  30;


$$
OHZ001>008-015>018-024>025-091900-
NORTHWEST OHIO

CITY           SKY/WX    TMP DP  RH WIND       PRES   REMARKS
DEFIANCE       CLOUDY    30  21  69 NW16G28   29.66S WCI  19
6HR MIN TEMP:  28; 6HR MAX TEMP:  31; 6HR PCP: TRACE;

FINDLAY        CLOUDY    28  24  85 W14       29.63S FOG     WCI  17
6HR MIN TEMP:  27; 6HR MAX TEMP:  28; 6HR PCP: TRACE;

TOLEDO EXPRESS CLOUDY    29  24  82 W10       29.62S WCI  20
6HR MIN TEMP:  27; 6HR MAX TEMP:  30; 6HR PCP:  0.09;

TOLEDO METCALF LGT SNOW  31  27  85 NW15      29.62S FOG     WCI  20
6HR MIN TEMP:  29; 6HR MAX TEMP:  32; 6HR PCP:  0.02;

LIMA           CLOUDY    25  21  85 W18       29.65F WCI  11
6HR MIN TEMP:  24; 6HR MAX TEMP:  25; 6HR PCP: TRACE;


$$
AND FOR LAKE MICHIGAN COASTAL AND OPEN LAKE BUOY OBSERVATIONS

STATION/POSITION TEMP    WIND        PRES    VSBY  WAVE
                 AIR SEA DIR/SP/G                  HT/PER
                 (F)     (DEG/KT/KT) (MB)    (MI)  (FT/S)
CALUMET HARBOR    18     290/ 11/ 16 1009.7R
MICHIGAN CITY     21     280/ 18/ 22   N/A
BURNS HARBOR      20     320/ 18     1009.8R
SAINT JOSEPH      25     300/ 16/ 20 1008.5F

$$
&&



USA.gov is the U.S. government's official web portal to all federal, state and local government web resources and services.